CAPE
3466 3338 3182 2968 2914 2691 2360 2325 2196 2036 2176 1935 1802 1488 1461 1466 1078 970 828 695 563 510 471 394 227 129 64 70 76 66 105 79 166 204 184 125 127 52 80 66 94 98
3768 3671 3478 2987 2883 2934 2875 2502 2565 2254 2186 2304 2017 1677 1568 1280 986 884 824 648 587 479 486 361 293 173 105 66 82 131 182 221 210 239 380 384 324 246 175 144 72 106
3961 3734 3633 3197 2710 2870 2741 2638 2491 2599 2232 2420 2168 1913 1612 1409 1085 958 839 695 552 538 456 398 336 264 142 97 116 88 109 269 281 162 338 307 323 152 229 48 226 118
4656 4037 3472 3128 2763 2604 2528 2459 2756 3082 2221 2520 2370 2000 1690 1312 1067 1025 818 651 647 620 525 421 314 218 183 125 137 116 86 110 48 58 197 356 340 208 98 92 44 32
4680 4526 3930 3373 2986 2612 2646 2806 2624 3059 2208 2349 2644 2201 2040 1476 1122 1012 854 875 786 780 710 506 320 200 263 216 184 164 134 126 67 117 114 131 180 152 92 68 40 34
5054 4728 4440 3985 3730 3590 3351 3299 3403 3179 3258 2935 2977 2408 2000 1878 1363 810 932 1010 930 751 599 486 380 302 267 338 295 299 138 100 68 135 134 172 124 40 29 36 69 61
4906 4826 4541 4436 4533 4508 4105 3738 3841 3584 3187 3020 2662 2205 1758 1796 1524 1132 1212 1076 854 753 620 545 494 312 165 175 165 183 232 232 195 209 236 170 165 123 52 46 81 66
5074 5138 4981 4878 4646 4449 4128 4035 3528 2987 2698 2575 2167 2057 1806 1678 1688 1467 1290 1130 842 847 775 569 511 391 75 50 62 156 241 209 236 241 267 232 194 147 102 82 58 64
5157 4914 4684 4572 4447 4333 3689 3101 2887 2450 2252 2106 1466 1186 1356 1284 1370 1261 1530 1541 1290 1124 1012 805 542 319 160 22 78 245 293 239 192 203 194 161 129 164 86 67 57 78
4663 4608 4352 4007 3822 3470 3096 2659 2358 1980 1966 1874 896 466 764 731 831 916 996 1162 1132 1165 1166 845 610 453 200 89 206 328 344 293 235 278 243 157 189 200 111 58 45 75
4745 4258 3984 3784 3195 2842 2618 2003 1930 2554 2031 1209 426 410 468 676 680 652 768 977 1060 968 1022 817 475 440 378 275 307 351 401 286 312 367 298 241 277 278 199 140 89 64
3889 3480 3356 2674 2685 2496 1930 1109 1405 1599 2130 1340 365 379 238 250 332 465 394 590 830 982 992 808 661 501 465 524 366 372 365 358 354 387 315 289 298 349 324 264 198 143
3618 3186 2870 2741 2844 2446 1282 892 700 389 430 704 244 36 97 358 946 670 456 692 657 741 820 714 666 558 569 737 690 490 430 520 421 389 412 395 379 365 301 169 112 90
3437 3301 2873 2764 2470 2892 1048 177 214 131 375 686 287 205 439 720 208 0 0 263 522 711 679 644 662 692 740 840 1028 729 602 603 500 456 498 399 362 464 404 187 78 67
3249 2992 2762 2527 2620 2318 804 140 83 116 427 619 692 394 280 215 0 66 200 390 660 772 706 707 846 814 819 1125 1209 1027 932 774 550 547 590 498 324 162 532 434 520 251
3212 2852 2542 2374 2430 2298 1183 455 176 320 735 662 458 259 83 38 0 0 214 368 573 678 742 849 852 820 1078 795 1000 1324 1328 1202 798 484 451 458 380 466 495 568 558 492
2775 2606 2280 2168 2218 2260 2040 1546 1198 534 126 318 322 132 1 0 0 0 90 354 422 731 900 942 1010 955 667 602 619 654 1165 1264 1084 967 606 546 410 706 430 472 852 835
3279 2943 2852 2789 2720 2638 2361 1724 1346 784 512 622 514 249 103 70 63 104 284 351 512 769 580 462 924 700 370 364 358 308 276 781 1090 1158 906 844 1107 711 1014 1440 1234 1204
3090 2938 2839 2734 2615 2408 2146 1800 1586 1064 858 682 741 686 444 286 150 375 557 637 716 646 320 268 724 548 273 258 256 234 194 223 179 438 904 1209 1287 1452 1301 1204 1464 1442
3070 2958 2795 2626 2367 2124 2020 1838 1560 1080 656 478 440 557 586 548 577 616 678 887 828 669 504 649 882 511 223 192 188 216 332 383 305 159 351 647 756 1051 1296 1212 1313 1432
3297 3073 2874 2686 2470 2157 1930 1730 1303 1095 858 634 453 626 686 654 674 821 689 806 860 457 756 956 776 269 166 98 178 224 180 307 458 378 637 984 1196 1089 985 838 890 862
3272 3137 2904 2708 2478 2166 1876 1480 1148 1015 913 874 612 546 462 542 700 630 714 726 531 458 585 960 466 134 97 117 135 114 153 303 540 772 908 1088 1274 1354 1072 959 931 761
3204 3094 2930 2522 2371 2258 1890 1308 986 1002 1198 1237 961 516 607 570 588 527 595 758 646 702 639 595 576 288 84 95 135 225 252 803 776 600 618 625 555 1036 986 920 800 594
2917 2727 2696 2370 2287 2205 1754 1256 1300 1385 1368 1234 1045 732 580 596 591 614 738 726 497 597 533 664 553 484 42 81 116 123 434 940 1100 1296 838 578 504 1094 1105 798 455 83
2486 2384 2241 2251 2224 2128 1529 1219 1223 1217 1178 1163 1061 972 894 911 608 459 589 642 466 334 282 149 131 546 130 5 68 80 489 1173 1036 800 735 397 364 571 854 524 290 68
2004 1862 1986 2056 2106 1872 1520 1030 898 902 929 990 934 887 766 619 505 498 412 449 377 302 280 164 28 528 576 63 9 22 113 985 920 592 454 256 157 528 534 548 252 126
Wind_Speed
18 18 18 18 17 17 17 19 19 18 17 16 17 17 18 20 21 23 23 24 25 25 25 24 23 23 nan nan nan nan 23 nan 23 25 24 23 23 nan nan nan nan nan
18 19 18 19 19 19 19 20 20 19 19 19 19 19 20 20 22 23 25 26 28 27 26 25 24 23 23 nan nan 23 24 24 24 26 25 23 22 22 22 22 nan 22
18 19 20 21 21 21 20 20 20 22 22 22 23 23 23 24 25 27 28 28 27 27 27 26 25 24 24 nan 24 nan 23 24 23 24 26 25 24 24 22 nan 23 23
20 21 22 22 22 21 21 20 22 25 25 27 28 27 26 28 31 32 31 31 28 26 26 27 25 25 25 24 24 23 nan 22 nan nan 25 26 25 24 nan nan nan nan
20 21 22 22 23 24 25 25 26 28 27 29 31 31 30 32 35 35 34 33 30 28 27 27 27 25 25 25 25 24 23 22 nan 23 24 24 25 25 nan nan nan nan
19 20 23 25 28 28 28 29 29 30 31 33 34 34 34 35 37 37 37 35 33 30 28 28 27 26 27 28 28 28 26 25 nan 23 23 24 24 nan nan nan nan nan
22 24 27 30 33 33 32 31 33 34 33 32 35 36 37 38 38 39 40 38 34 31 30 30 29 28 30 31 32 32 31 29 26 24 23 23 24 25 nan nan nan nan
26 28 31 33 35 35 36 37 38 38 37 38 40 42 42 42 40 39 39 40 37 34 33 32 31 31 nan nan nan 35 34 34 31 28 27 26 26 26 26 nan nan nan
27 30 31 34 35 35 37 39 42 41 40 43 42 42 47 43 36 35 38 40 40 38 37 35 33 34 36 nan nan 37 36 34 32 31 30 30 29 29 nan nan nan nan
29 31 34 35 34 33 38 41 41 39 41 47 45 39 47 45 36 34 38 41 40 39 38 36 32 31 32 nan 38 37 35 34 32 32 32 32 32 30 29 nan nan nan
33 35 35 31 31 37 43 43 41 41 42 46 48 45 44 38 35 35 39 40 40 37 36 35 32 29 30 35 39 37 35 34 34 33 33 33 33 32 30 28 nan nan
32 34 36 36 38 46 52 48 48 48 45 48 53 45 36 33 36 36 37 38 39 37 32 30 29 26 28 34 37 37 38 37 35 35 35 34 33 33 32 29 25 23
38 40 39 40 41 47 51 53 52 52 52 53 54 nan nan 42 43 41 39 39 39 37 30 28 29 29 30 36 38 38 39 40 37 35 35 35 33 31 31 29 25 nan
40 38 39 41 47 48 50 53 52 53 56 56 53 52 50 49 50 nan nan 39 37 35 32 31 35 37 38 41 43 42 40 40 40 38 36 34 32 30 31 30 nan nan
43 43 43 46 46 48 49 50 nan 53 52 53 55 54 51 52 nan nan 41 38 37 36 34 34 37 40 42 45 47 46 42 39 39 39 37 35 31 29 30 30 29 27
49 51 52 52 53 51 49 50 51 54 54 53 55 55 nan nan nan nan 44 42 38 35 36 38 39 41 45 49 48 47 45 40 36 36 36 36 32 30 30 31 29 29
51 53 55 54 52 52 52 54 57 56 56 57 55 54 nan nan nan nan nan 42 40 40 42 43 43 43 47 48 48 47 44 38 34 32 33 34 33 34 34 33 34 37
51 53 53 52 50 49 50 53 57 58 60 61 61 61 59 nan nan 50 46 44 44 44 45 44 43 46 48 47 47 45 43 37 31 30 30 31 31 33 36 37 38 40
52 53 54 54 53 53 52 52 54 54 57 60 61 61 61 60 57 50 45 44 44 44 44 44 41 48 49 48 44 41 42 37 32 29 28 27 28 32 36 37 38 37
55 57 58 59 60 58 56 55 56 56 57 58 59 60 60 61 59 53 48 46 46 44 44 43 40 46 46 43 40 41 39 35 29 27 25 24 25 27 30 32 33 34
58 61 63 63 65 64 61 60 59 58 58 59 60 61 61 61 61 56 49 46 46 45 44 43 40 45 41 nan 39 38 36 30 25 23 22 22 23 26 28 29 31 32
59 61 63 64 65 64 64 63 61 59 59 59 59 60 60 61 60 56 50 45 44 45 43 42 39 43 nan 37 36 34 35 27 22 20 20 20 23 25 26 26 29 31
59 61 61 62 64 64 62 62 61 60 59 59 60 61 61 60 59 55 47 41 42 45 43 40 39 40 nan nan 34 34 32 26 25 21 17 17 20 24 26 28 31 34
59 59 59 61 62 62 61 61 61 61 61 60 61 63 61 59 58 54 45 39 41 44 41 38 37 41 nan nan 40 38 29 25 24 23 19 14 17 24 30 32 36 nan
59 59 60 62 64 64 64 64 62 62 61 61 63 66 63 58 55 51 44 38 36 37 37 35 33 40 44 nan nan nan 27 21 21 20 17 18 24 26 31 33 38 nan
59 60 61 65 67 67 66 65 64 64 63 64 67 66 58 53 54 51 43 34 32 33 35 34 nan 33 38 nan nan nan 27 21 18 21 22 25 28 31 34 37 37 40
Wind_Direction
315 313 316 317 316 314 313 312 310 307 301 295 291 292 295 299 302 299 297 295 296 298 297 295 294 293 nan nan nan nan 279 nan 273 273 274 274 278 nan nan nan nan nan
322 319 313 315 313 310 309 309 308 304 299 295 289 286 290 295 297 296 296 295 294 295 294 292 290 290 289 nan nan 286 283 280 277 276 277 279 277 280 284 287 nan 287
323 322 321 321 317 317 315 310 308 305 303 300 298 298 300 300 300 300 298 297 294 293 292 289 288 287 287 nan 286 nan 286 282 280 278 279 278 277 277 278 nan 286 286
323 323 320 320 317 315 311 310 310 308 309 306 307 307 307 305 306 307 307 304 297 293 292 291 288 285 285 286 288 288 nan 283 nan nan 280 280 277 276 nan nan nan nan
325 321 318 317 317 316 315 315 316 311 312 308 307 306 305 304 305 308 310 306 299 295 292 291 291 288 286 287 288 286 286 285 nan 284 281 277 275 276 nan nan nan nan
325 322 318 318 317 319 322 321 316 310 306 305 306 306 303 300 300 302 302 301 298 296 294 293 293 293 292 292 289 286 283 282 nan 283 284 283 277 nan nan nan nan nan
330 329 327 322 320 321 322 319 309 302 299 297 297 296 294 292 293 294 294 293 292 292 292 289 288 290 293 293 291 287 284 280 275 276 280 281 283 280 nan nan nan nan
336 332 326 321 321 319 315 308 304 300 293 287 290 288 286 285 289 293 292 290 290 291 293 291 286 289 nan nan nan 290 285 279 277 278 280 281 282 282 280 nan nan nan
337 331 323 319 319 317 312 304 301 301 294 289 282 279 280 283 289 296 298 296 294 293 296 295 289 286 291 nan nan 293 289 284 279 276 277 279 281 283 nan nan nan nan
342 325 319 320 320 313 306 294 296 299 294 290 287 277 275 279 282 292 300 301 297 296 299 302 296 288 294 nan 303 297 293 291 286 281 281 281 281 283 281 nan nan nan
334 321 314 314 307 303 303 297 296 300 297 300 303 291 275 284 296 307 312 309 303 301 304 310 306 295 300 312 309 298 291 289 288 285 283 283 283 284 281 275 nan nan
325 312 296 284 290 299 302 297 294 300 308 315 315 308 297 305 321 326 331 330 324 319 319 326 326 317 313 317 314 302 291 286 283 283 282 280 280 280 278 276 277 280
318 314 302 288 289 296 296 292 293 301 308 313 321 nan nan 333 327 330 335 338 339 335 333 337 342 337 328 322 316 306 294 285 280 279 279 278 277 276 273 272 275 nan
309 304 304 305 310 305 297 294 300 310 314 317 324 333 338 339 340 nan nan 342 343 336 330 327 328 329 327 321 315 307 297 288 281 276 275 276 277 275 273 271 nan nan
294 299 302 296 294 297 298 302 nan 315 319 325 335 341 342 346 nan nan 336 337 339 338 335 329 324 322 318 313 309 305 299 291 282 276 275 275 272 273 275 272 268 264
301 305 304 305 310 315 317 315 314 321 329 333 337 342 nan nan nan nan 335 338 338 337 336 331 326 319 313 312 308 303 300 294 284 278 276 274 271 269 270 271 268 267
307 310 311 315 317 317 317 320 322 325 329 332 333 334 nan nan nan nan nan 330 333 336 336 332 328 323 317 313 312 309 303 298 288 280 280 280 275 270 270 269 271 270
311 313 314 317 316 314 317 323 326 328 328 329 330 333 334 nan nan 334 330 333 333 337 339 335 331 326 322 318 317 316 313 303 289 277 278 280 275 270 269 267 265 266
315 314 313 314 314 316 320 323 326 328 328 328 329 329 328 330 334 331 331 332 333 335 336 334 333 325 323 320 320 314 304 301 293 276 272 275 276 275 277 276 276 282
318 316 315 317 319 320 321 322 324 326 327 327 326 324 324 327 329 331 329 332 331 334 333 329 328 315 316 317 315 313 314 306 299 295 286 281 285 290 289 287 289 293
318 317 317 320 322 323 323 325 325 324 325 324 323 323 322 324 327 328 328 331 332 333 330 327 323 317 319 nan 319 320 314 304 294 297 294 291 294 297 299 299 297 296
315 315 316 318 321 322 323 325 324 323 323 322 320 319 318 318 322 324 325 327 328 326 328 325 321 318 nan 321 323 318 311 297 291 290 295 295 296 299 295 293 291 289
311 312 313 316 316 318 320 320 319 317 317 316 317 317 315 314 318 321 321 322 323 322 325 324 321 320 nan nan 325 318 307 295 288 287 295 303 305 301 298 296 294 294
306 307 308 309 311 313 314 313 312 309 310 310 312 314 314 312 314 318 319 318 319 318 323 326 324 323 nan nan 328 322 311 295 286 275 266 265 274 290 292 291 296 nan
303 304 304 306 306 306 306 307 307 305 304 304 307 310 311 310 313 317 315 313 317 320 321 329 330 325 331 nan nan nan 301 284 273 276 283 285 283 285 286 287 288 nan
301 302 302 302 302 302 302 302 300 300 302 302 306 309 310 309 310 311 312 311 312 316 317 324 nan 323 322 nan nan nan 297 283 290 294 296 296 295 290 289 289 289 290